K5KHP Weather Reports


time (UTC)temp
F
wind
direction
speed
knots
gust
knots
rain 1hr
in
rain 24hr
in
rain mn
in
humidity
%
barometer
mb
20260507023452 62 204 0.0 0.0 0.00 0.00 0.00 82 1015.4
20260507022949 63 220 0.0 0.0 0.00 0.00 0.00 82 1015.3
20260507022447 63 174 0.0 0.9 0.00 0.00 0.00 81 1015.4
20260507021942 63 198 0.0 0.0 0.00 0.00 0.00 81 1015.4
20260507021437 63 177 0.0 0.0 0.00 0.00 0.00 81 1015.6
20260507020935 64 228 0.0 0.0 0.00 0.00 0.00 80 1015.4
20260507020432 64 216 0.0 1.7 0.00 0.00 0.00 79 1015.2
20260507015929 64 163 0.0 0.9 0.00 0.00 0.00 78 1015.4
20260507015427 65 203 0.0 0.0 0.00 0.00 0.00 78 1015.2
20260507014924 65 236 0.0 0.0 0.00 0.00 0.00 76 1015.4
20260507014420 66 275 0.0 0.0 0.00 0.00 0.00 73 1014.9
20260507013917 66 138 0.0 0.0 0.00 0.00 0.00 73 1015.1
20260507013414 66 292 0.0 0.0 0.00 0.00 0.00 72 1015.1
20260507012912 66 211 0.0 0.0 0.00 0.00 0.00 70 1015.4
20260507012408 67 205 0.0 0.0 0.00 0.00 0.00 70 1015.2
20260507011904 67 211 0.0 0.0 0.00 0.00 0.00 68 1015.3
20260507011401 68 193 0.0 0.0 0.00 0.00 0.00 67 1015.3
20260507010855 67 210 0.0 0.0 0.00 0.00 0.00 69 1015.3
20260507010351 67 263 2.6 5.2 0.00 0.00 0.00 69 1015.1
20260507005849 68 199 0.0 0.0 0.00 0.00 0.00 68 1015.5
20260507005345 68 223 0.0 0.0 0.00 0.00 0.00 65 1015.5
20260507004842 67 266 0.0 1.7 0.00 0.00 0.00 66 1015.4
20260507004339 68 287 1.7 4.3 0.00 0.00 0.00 66 1015.4
20260507003836 67 249 0.9 1.7 0.00 0.00 0.00 67 1015.4
20260507003331 68 193 0.0 0.0 0.00 0.00 0.00 66 1015.2
20260507002826 68 236 0.0 0.0 0.00 0.00 0.00 66 1015.3
20260507002323 67 241 0.0 0.9 0.00 0.00 0.00 66 1015.4
20260507001820 68 235 1.7 2.6 0.00 0.00 0.00 65 1015.5
20260507001317 68 210 1.7 2.6 0.00 0.00 0.00 65 1015.3
20260507000813 69 253 1.7 5.2 0.00 0.00 0.00 63 1015.4
20260507000309 68 228 0.0 0.0 0.00 0.00 0.00 64 1015.2
20260506235806 68 245 1.7 4.3 0.00 0.00 0.00 65 1015.3
20260506235306 68 192 0.0 0.0 0.00 0.00 0.00 65 1015.4
20260506234753 68 225 0.9 1.7 0.00 0.00 0.00 64 1015.5
20260506234250 69 254 2.6 7.0 0.00 0.00 0.00 63 1015.4
20260506233743 69 251 0.0 0.9 0.00 0.00 0.00 64 1015.4
20260506233239 69 244 0.0 0.9 0.00 0.00 0.00 65 1015.2
20260506232735 69 254 0.0 0.9 0.00 0.00 0.00 64 1015.6
20260506232230 69 258 1.7 4.3 0.00 0.00 0.00 64 1015.2
20260506231728 69 238 0.0 0.9 0.00 0.00 0.00 65 1015.4
20260506231226 69 207 0.0 0.0 0.00 0.00 0.00 66 1015.5
20260506230723 70 221 0.0 0.9 0.00 0.00 0.00 64 1015.6
20260506230220 69 293 1.7 4.3 0.00 0.00 0.00 64 1015.5
20260506225716 69 220 2.6 5.2 0.00 0.00 0.00 64 1015.6
20260506225213 69 263 5.2 7.0 0.00 0.00 0.00 64 1015.9
20260506224709 70 199 0.0 0.9 0.00 0.00 0.00 65 1015.5
20260506224207 69 259 2.6 4.3 0.00 0.00 0.00 65 1015.8
20260506223703 69 247 0.0 0.9 0.00 0.00 0.00 67 1015.9
20260506223159 70 268 0.0 0.0 0.00 0.00 0.00 64 1016.0
20260506222656 69 278 0.9 1.7 0.00 0.00 0.00 64 1016.0
20260506222151 70 265 6.1 11.3 0.00 0.00 0.00 65 1015.9
20260506221649 70 232 3.5 5.2 0.00 0.00 0.00 65 1016.0
20260506221147 70 198 0.0 0.0 0.00 0.00 0.00 64 1016.1
20260506220643 70 255 2.6 6.1 0.00 0.00 0.00 64 1016.2
20260506220138 69 241 5.2 9.6 0.00 0.00 0.00 66 1016.4
20260506215635 69 257 5.2 7.8 0.00 0.00 0.00 65 1016.5
20260506215130 69 272 1.7 7.0 0.00 0.00 0.00 66 1016.4
20260506214628 70 244 2.6 6.1 0.00 0.00 0.00 65 1016.6
20260506214125 70 258 2.6 6.1 0.00 0.00 0.00 65 1016.4
20260506213624 70 234 4.3 7.0 0.00 0.00 0.00 66 1016.5
20260506213120 70 259 0.0 0.0 0.00 0.00 0.00 64 1016.7
20260506212618 70 234 0.9 2.6 0.00 0.00 0.00 64 1016.7
20260506212112 69 189 3.5 7.0 0.00 0.00 0.00 65 1016.9
20260506211608 69 228 0.0 0.0 0.00 0.00 0.00 64 1016.7
20260506211106 70 248 1.7 5.2 0.00 0.00 0.00 64 1016.8
20260506210602 70 219 2.6 5.2 0.00 0.00 0.00 65 1016.7
20260506210058 69 270 0.9 2.6 0.00 0.00 0.00 65 1016.8
20260506205555 69 215 0.9 1.7 0.00 0.00 0.00 64 1016.9
20260506205050 69 194 0.0 0.0 0.00 0.00 0.00 64 1016.8
20260506204549 69 258 2.6 6.1 0.00 0.00 0.00 65 1016.9
20260506204045 69 284 4.3 6.1 0.00 0.00 0.00 64 1016.7
20260506203544 69 250 0.0 0.9 0.00 0.00 0.00 66 1017.0
20260506203040 69 250 0.9 2.6 0.00 0.00 0.00 66 1017.0
20260506202538 69 276 2.6 2.6 0.00 0.00 0.00 65 1017.0
20260506202034 68 254 2.6 5.2 0.00 0.00 0.00 67 1017.0
20260506201532 69 266 0.0 0.9 0.00 0.00 0.00 67 1017.1
20260506201028 68 288 0.9 2.6 0.00 0.00 0.00 67 1017.0
20260506200524 68 206 0.9 2.6 0.00 0.00 0.00 70 1017.3
20260506200021 68 194 0.0 0.0 0.00 0.00 0.00 69 1017.3
20260506195518 68 257 7.8 9.6 0.00 0.00 0.00 70 1017.3
20260506195009 68 271 3.5 5.2 0.00 0.00 0.00 70 1017.4
20260506194507 68 242 4.3 7.0 0.00 0.00 0.00 71 1017.3
20260506194003 69 273 1.7 2.6 0.00 0.00 0.00 69 1017.3
20260506193500 68 255 2.6 4.3 0.00 0.00 0.00 71 1017.3
20260506192956 69 213 0.0 0.9 0.00 0.00 0.00 69 1017.4
20260506192454 68 227 0.0 0.0 0.00 0.00 0.00 71 1017.4
20260506191950 68 257 0.0 0.0 0.00 0.00 0.00 69 1017.4
20260506191447 68 264 2.6 6.1 0.00 0.00 0.00 71 1017.6
20260506190943 68 230 0.0 1.7 0.00 0.00 0.00 71 1017.5
20260506190440 68 240 2.6 4.3 0.00 0.00 0.00 70 1017.6
20260506185937 68 259 0.0 0.0 0.00 0.00 0.00 70 1017.6
20260506185434 68 276 0.9 4.3 0.00 0.00 0.00 70 1017.4
20260506184931 68 199 0.9 2.6 0.00 0.00 0.00 70 1017.6
20260506184428 68 260 0.9 1.7 0.00 0.00 0.00 71 1017.5
20260506183925 67 250 5.2 7.0 0.00 0.00 0.00 71 1017.6
20260506183420 67 250 2.6 5.2 0.00 0.00 0.00 71 1017.7
20260506182918 68 272 6.1 7.0 0.00 0.00 0.00 69 1017.9
20260506182415 68 243 2.6 5.2 0.00 0.00 0.00 69 1017.6
20260506181912 68 267 0.0 0.0 0.00 0.00 0.00 68 1018.0
20260506181410 68 241 1.7 4.3 0.00 0.00 0.00 68 1017.9
20260506180907 68 215 0.0 0.0 0.00 0.00 0.00 68 1017.9
20260506180403 67 209 0.0 0.0 0.00 0.00 0.00 68 1017.7
20260506175900 69 243 4.3 6.1 0.00 0.00 0.00 66 1017.8
20260506175356 69 157 0.0 0.0 0.00 0.00 0.00 62 1017.7
20260506174853 69 178 0.0 0.0 0.00 0.00 0.00 61 1017.7
20260506174351 68 145 0.0 0.0 0.00 0.00 0.00 63 1017.8
20260506173848 68 225 0.9 4.3 0.00 0.00 0.00 62 1017.5
20260506173345 67 227 0.0 0.0 0.00 0.00 0.00 64 1017.8
20260506172842 67 170 0.0 0.0 0.00 0.00 0.00 66 1017.8
20260506172338 67 212 0.0 0.9 0.00 0.00 0.00 65 1018.0
20260506171830 67 233 0.9 2.6 0.00 0.00 0.00 65 1017.9
20260506171327 66 107 0.0 0.0 0.00 0.00 0.00 66 1018.0
20260506170825 67 279 0.0 0.9 0.00 0.00 0.00 66 1017.7
20260506170320 66 269 0.0 0.0 0.00 0.00 0.00 68 1017.9
20260506165819 65 285 0.0 0.0 0.00 0.00 0.00 69 1017.8
20260506165316 65 255 0.0 0.0 0.00 0.00 0.00 69 1017.9
20260506164808 65 267 0.0 0.0 0.00 0.00 0.00 69 1017.6
20260506164304 65 212 0.0 0.0 0.00 0.00 0.00 69 1017.8
20260506163801 64 188 0.0 0.0 0.00 0.00 0.00 70 1017.8
20260506163256 64 257 0.0 0.0 0.00 0.00 0.00 70 1017.9
20260506162752 65 249 0.0 0.0 0.00 0.00 0.00 71 1017.7
20260506162250 64 268 0.0 0.0 0.00 0.00 0.00 71 1018.0
20260506161747 64 183 0.0 0.0 0.00 0.00 0.00 70 1017.8
20260506161244 64 349 0.0 0.0 0.00 0.00 0.00 70 1018.0
20260506160741 63 235 0.0 0.0 0.00 0.00 0.00 72 1017.9
20260506160238 63 224 0.0 0.0 0.00 0.00 0.00 71 1017.9
20260506155737 63 206 0.0 0.0 0.00 0.00 0.00 72 1017.8
20260506155234 63 223 0.0 0.0 0.00 0.00 0.00 71 1017.8
20260506153346 63 38 0.0 0.0 0.00 0.00 0.00 72 1017.8
20260506152843 63 119 0.0 0.0 0.00 0.00 0.00 71 1017.8
20260506152340 62 115 0.0 0.0 0.00 0.00 0.00 72 1017.8
20260506151839 61 157 0.0 0.0 0.00 0.00 0.00 73 1017.8
20260506151335 60 97 0.0 0.0 0.00 0.00 0.00 75 1017.9
20260506150832 59 131 0.0 0.0 0.00 0.00 0.00 76 1017.7
20260506150329 59 90 0.0 0.0 0.00 0.00 0.00 76 1017.8
20260506145826 58 113 0.0 0.0 0.00 0.00 0.00 79 1017.7
20260506145322 58 105 0.0 0.0 0.00 0.00 0.00 78 1017.7
20260506144820 57 95 0.0 0.0 0.00 0.00 0.00 79 1017.7
20260506144316 57 87 0.0 0.0 0.00 0.00 0.00 80 1017.8
20260506143815 56 119 0.0 0.0 0.00 0.00 0.00 82 1017.8
20260506143311 56 69 0.0 0.0 0.00 0.00 0.00 83 1017.6
20260506142810 55 88 0.0 0.0 0.00 0.00 0.00 83 1017.6
20260506142307 55 117 0.0 0.0 0.00 0.00 0.00 83 1017.7
20260506141806 55 86 0.0 0.0 0.00 0.00 0.00 84 1017.5
20260506141303 54 57 0.0 0.0 0.00 0.00 0.00 84 1017.6
20260506140801 54 77 0.0 0.0 0.00 0.00 0.00 85 1017.5
20260506140257 53 72 0.0 0.0 0.00 0.00 0.00 85 1017.3
20260506135755 53 132 0.0 0.0 0.00 0.00 0.00 86 1017.6
20260506135251 53 58 0.0 0.0 0.00 0.00 0.00 86 1017.5
20260506134748 53 117 0.0 0.0 0.00 0.00 0.00 87 1017.5
20260506134244 52 98 0.0 0.0 0.00 0.00 0.00 88 1017.4
20260506133741 51 104 0.0 0.0 0.00 0.00 0.00 89 1017.3
20260506133238 51 85 0.0 0.0 0.00 0.00 0.00 90 1017.5
20260506132735 51 81 0.0 0.0 0.00 0.00 0.00 90 1017.3
20260506132232 51 66 0.0 0.0 0.00 0.00 0.00 90 1017.4
20260506131730 51 100 0.0 0.0 0.00 0.00 0.00 90 1017.3
20260506131225 51 68 0.0 0.0 0.00 0.00 0.00 90 1017.2
20260506130722 51 75 0.0 0.0 0.00 0.00 0.00 90 1017.3
20260506130219 51 89 0.0 0.0 0.00 0.00 0.00 90 1017.4
20260506125718 51 118 0.0 0.0 0.00 0.00 0.00 90 1017.2
20260506125215 51 131 0.0 0.0 0.00 0.00 0.00 90 1017.0
20260506124713 51 116 0.0 0.0 0.00 0.00 0.00 90 1017.0
20260506124211 51 124 0.0 0.0 0.00 0.00 0.00 90 1017.0
20260506123708 51 69 0.0 0.0 0.00 0.00 0.00 90 1016.9
20260506123207 51 56 0.0 0.0 0.00 0.00 0.00 90 1016.9
20260506122703 51 53 0.0 0.0 0.00 0.00 0.00 90 1016.8
20260506122201 51 60 0.0 0.0 0.00 0.00 0.00 89 1016.9
20260506121658 51 75 0.0 0.0 0.00 0.00 0.00 89 1016.6
20260506121154 52 105 0.0 0.0 0.00 0.00 0.00 89 1016.6
20260506120652 51 108 0.0 1.7 0.00 0.00 0.00 90 1016.6
20260506120149 52 117 0.0 0.0 0.00 0.00 0.00 90 1016.4
20260506115648 52 99 0.0 0.0 0.00 0.00 0.00 90 1016.7
20260506115146 52 89 0.0 0.9 0.00 0.00 0.00 90 1016.6
20260506114643 52 52 0.0 0.0 0.00 0.00 0.00 90 1016.5
20260506114140 52 103 0.0 0.0 0.00 0.00 0.00 90 1016.6
20260506113639 52 47 0.0 0.0 0.00 0.00 0.00 90 1016.7
20260506113136 52 81 0.0 0.9 0.00 0.00 0.00 90 1016.5
20260506112632 52 94 0.0 0.0 0.00 0.00 0.00 90 1016.6
20260506112129 52 81 0.0 0.0 0.00 0.00 0.00 90 1016.4
20260506111627 52 37 0.0 0.0 0.00 0.00 0.00 90 1016.5
20260506111125 52 103 0.0 0.0 0.00 0.00 0.00 90 1016.5
20260506110622 52 56 0.0 0.0 0.00 0.00 0.00 90 1016.6
20260506110119 52 97 0.0 0.0 0.00 0.00 0.00 90 1016.4
20260506105615 52 75 0.0 0.0 0.00 0.00 0.00 90 1016.5
20260506105113 52 55 0.0 0.9 0.00 0.00 0.00 91 1016.5
20260506104611 52 76 0.0 0.0 0.00 0.00 0.00 91 1016.5
20260506104108 52 93 0.0 0.0 0.00 0.00 0.00 91 1016.5
20260506103605 52 53 0.0 0.0 0.00 0.00 0.00 91 1016.3
20260506103102 52 89 0.0 0.0 0.00 0.00 0.00 91 1016.3
20260506102600 52 92 0.0 0.0 0.00 0.00 0.00 91 1016.4
20260506102057 52 105 0.0 0.0 0.00 0.00 0.00 91 1016.5
20260506101554 52 109 0.0 0.0 0.00 0.00 0.00 91 1016.3
20260506101051 52 63 0.0 0.0 0.00 0.00 0.00 91 1016.5
20260506100549 52 64 0.0 0.0 0.00 0.00 0.00 91 1016.5
20260506100047 52 77 0.0 0.0 0.00 0.00 0.00 91 1016.3
20260506095545 52 93 0.0 0.0 0.00 0.00 0.00 91 1016.7
20260506095041 53 98 0.0 0.0 0.00 0.00 0.00 91 1016.6
20260506094539 53 121 0.0 0.0 0.00 0.00 0.00 91 1016.6
20260506094037 53 83 0.0 0.0 0.00 0.00 0.00 91 1016.8
20260506093535 53 53 0.0 0.0 0.00 0.00 0.00 91 1016.8
20260506093032 53 92 0.0 0.0 0.00 0.00 0.00 91 1016.7
20260506092530 53 96 0.0 0.0 0.00 0.00 0.00 91 1016.6
20260506092026 53 105 0.0 0.0 0.00 0.00 0.00 91 1016.8
20260506091525 53 68 0.0 0.0 0.00 0.00 0.00 91 1016.9
20260506091022 53 69 0.0 0.0 0.00 0.00 0.00 91 1017.0
20260506090520 53 88 0.0 0.0 0.00 0.00 0.00 91 1017.0
20260506090015 53 66 0.0 0.0 0.00 0.00 0.00 91 1016.9
20260506085513 53 106 0.0 0.0 0.00 0.00 0.00 90 1016.9
20260506085009 53 100 0.0 0.0 0.00 0.00 0.00 90 1017.0
20260506084506 53 111 0.0 0.0 0.00 0.00 0.00 90 1017.0
20260506084002 53 50 0.0 0.0 0.00 0.00 0.00 90 1016.9
20260506083459 53 75 0.0 0.0 0.00 0.00 0.00 91 1017.1
20260506082956 53 92 0.0 0.0 0.00 0.00 0.00 91 1017.1
20260506082454 53 110 0.0 0.0 0.00 0.00 0.00 91 1017.3
20260506081949 53 34 0.0 0.0 0.00 0.00 0.00 91 1017.1
20260506081448 53 88 0.0 0.0 0.00 0.00 0.00 91 1017.1
20260506080945 54 56 0.0 0.0 0.00 0.00 0.00 91 1017.0
20260506080442 54 109 0.0 0.0 0.00 0.00 0.00 91 1017.0
20260506073426 54 57 0.0 0.0 0.00 0.00 0.00 91 1017.1
20260506072923 54 83 0.0 0.0 0.00 0.00 0.00 91 1017.0
20260506072420 54 88 0.0 0.0 0.00 0.00 0.00 91 1016.8
20260506071917 54 106 0.0 0.0 0.00 0.00 0.00 90 1017.0
20260506071416 55 112 0.0 0.0 0.00 0.00 0.00 90 1016.7
20260506070912 55 111 0.0 0.0 0.00 0.00 0.00 90 1016.8
20260506070409 55 122 0.0 0.0 0.00 0.00 0.00 90 1016.7
20260506062346 56 64 0.0 0.0 0.00 0.00 0.00 89 1016.2
20260506061842 56 105 0.0 0.0 0.00 0.00 0.00 89 1016.0
20260506061339 56 137 0.0 0.0 0.00 0.00 0.00 89 1016.1
20260506060837 56 136 0.0 0.0 0.00 0.00 0.00 89 1016.0
20260506060335 56 122 0.0 0.0 0.00 0.00 0.00 88 1016.0
20260506051306 57 145 0.0 0.0 0.00 0.00 0.00 88 1015.8
20260506050805 57 144 0.0 0.0 0.00 0.00 0.00 88 1015.7
20260506050302 57 167 0.0 0.0 0.00 0.00 0.00 88 1015.9
20260506044752 57 169 0.0 0.0 0.00 0.00 0.00 88 1015.5
20260506044250 57 176 0.0 0.0 0.00 0.00 0.00 88 1015.5
20260506043747 57 165 0.0 0.0 0.00 0.00 0.00 88 1015.7
20260506043244 57 146 0.0 0.0 0.00 0.00 0.00 88 1015.5
20260506042743 57 149 0.0 0.0 0.00 0.00 0.00 88 1015.4
20260506042241 57 147 0.0 0.0 0.00 0.00 0.00 88 1015.3
20260506041739 57 153 0.0 0.0 0.00 0.00 0.00 88 1015.2
20260506041236 57 164 0.0 0.0 0.00 0.00 0.00 88 1015.4
20260506040733 57 168 0.0 0.0 0.00 0.00 0.00 88 1015.0
20260506040230 57 171 0.0 0.0 0.00 0.00 0.00 88 1015.2
20260506035727 58 164 0.0 0.0 0.00 0.00 0.00 88 1015.2
20260506035224 58 170 0.0 0.0 0.00 0.00 0.00 88 1014.9
20260506034720 58 173 0.0 0.0 0.00 0.00 0.00 87 1014.9
20260506034218 58 180 0.0 0.0 0.00 0.00 0.00 87 1015.0
20260506033715 58 154 0.0 0.0 0.00 0.00 0.00 87 1014.8
20260506033212 58 200 0.0 0.0 0.00 0.00 0.00 87 1014.6
20260506032709 58 173 0.0 0.0 0.00 0.00 0.00 87 1014.8
20260506032206 58 202 0.0 0.0 0.00 0.00 0.00 86 1014.5
20260506031702 58 203 0.0 0.0 0.00 0.00 0.00 86 1014.6
20260506031200 58 168 0.0 0.0 0.00 0.00 0.00 86 1014.4
20260506030658 58 180 0.0 0.0 0.00 0.00 0.00 85 1014.2
20260506030155 59 155 0.0 0.9 0.00 0.00 0.00 85 1014.2
20260506025652 59 198 0.0 0.0 0.00 0.00 0.00 84 1014.0
20260506025148 59 163 0.0 0.0 0.00 0.00 0.00 84 1014.1
20260506024646 59 159 0.0 0.0 0.00 0.00 0.00 83 1013.8
20260506024142 59 218 0.0 0.9 0.00 0.00 0.00 82 1013.9